User: anonymous   Login
Location: Mentone
(34.5413°N, 85.5351°W)
Time: 07:58:16
(UTC-06:00)
Language:

Tiros 1 despin weight - Orbit

View from above orbital plane
View from above orbital plane
View from above satellite
View from above satellite

Ground track
Ground track

The orbit data is extracted from the following two-line orbital elements,

1 00115U 60002D   17019.76949544  .00000022  00000-0  30011-4 0  9994
2 00115  48.1665 137.0004 0035057 166.4611 193.7249 14.82988627 28199
Epoch (UTC): 19 January 2017 18:28:04
Eccentricity: 0.0035057
inclination: 48.1665°
perigee height: 595 km
apogee height: 644 km
right ascension of ascending node: 137.0004°
argument of perigee: 166.4611°
revolutions per day: 14.82988627
mean anomaly at epoch: 193.7249°
orbit number at epoch: 2819

The dashed part of the orbit path shows where the satellite is in the earth's shadow,  

DLR